Location: Columbia
(38.9520°N, 92.3340°W)
Time: 19:08:30
(UTC-05:00)

Daily predictions for brighter satellites

Satellite Brightness Start Highest point End
(mag) Time Altitude Azimuth Time Altitude Azimuth Time Altitude Azimuth
Cosmos 1821 Rocket 3.9 20:02:21 10° S 20:08:26 79° E 20:14:32 10° N
Meteor 2-21 Rocket 4.5 20:02:35 10° S 20:08:47 80° E 20:14:59 10° N
Cosmos 1633 4.0 20:07:21 10° SSW 20:10:52 44° W 20:14:22 10° N
Cosmos 1605 Rocket 4.3 20:05:39 10° SSE 20:11:40 48° E 20:17:39 10° NNE
CZ-4B DEB 3.2 20:09:52 10° SSE 20:13:00 45° ENE 20:16:09 10° N
Tiangong 1 2.1 20:12:19 10° WNW 20:15:15 38° N 20:18:11 10° ENE
Cosmos 1025 Rocket 3.9 20:11:01 10° NNW 20:15:17 55° W 20:19:30 10° S
Spot 2 Rocket 3.7 20:10:52 10° S 20:15:58 80° WSW 20:21:04 10° NNW
NOSS 7 (H) 4.3 20:13:07 10° SSW 20:16:27 75° ESE 20:19:50 10° NE
RESURS DK-1 4.3 20:14:30 10° NNE 20:16:48 14° NE 20:19:05 10° E
Cosmos 1697 Rocket 3.4 20:12:39 10° SSE 20:17:28 30° ESE 20:22:17 10° NE
Meteor 2-15 4.4 20:12:39 10° N 20:18:44 76° E 20:24:45 10° SSE
Cosmos 2208 Rocket 4.2 20:13:41 10° SSW 20:19:00 86° WNW 20:24:25 10° NNE
METEOR-M 4.4 20:14:47 10° S 20:20:07 78° WSW 20:25:30 10° NNW
BREEZE-M DEB (TANK) 3.8 20:20:07 10° SW 20:23:38 74° SE 20:35:13 10° NE
Iridium 4 Rocket 4.2 20:19:47 10° NNE 20:24:06 29° E 20:28:05 10° SE
Meteor 2-15 Rocket 4.4 20:19:16 10° N 20:25:20 73° E 20:31:23 10° SSE
Cosmos 1626 Rocket 4.1 20:21:18 10° N 20:25:23 37° ENE 20:29:25 10° SE
Cosmos 1892 Rocket 4.0 20:22:14 10° NNW 20:26:43 70° W 20:31:09 10° S
Cosmos 2278 3.9 20:21:39 10° SSW 20:27:19 80° WNW 20:33:03 10° NNE
Cosmos 1455 Rocket 3.1 20:24:17 10° S 20:28:37 88° W 20:32:59 10° N
Cosmos 2084 4.2 20:26:08 10° NNW 20:29:51 34° NE 20:33:09 13° ESE
Cosmos 1602 Rocket 3.8 20:30:53 10° N 20:35:13 48° E 20:39:28 10° SSE
Cosmos 220 Rocket 4.0 20:35:01 10° N 20:39:10 57° ENE 20:43:07 11° SSE
H-2A R/B 2.7 20:36:32 10° SSE 20:40:23 68° ENE 20:44:19 10° N
Cosmos 1980 Rocket 3.0 20:36:16 10° SSE 20:41:00 28° ESE 20:45:45 10° NE
Lacrosse 5 2.7 20:36:37 10° NNW 20:41:19 37° NE 20:44:53 16° E
Cosmos 2369 4.1 20:36:14 10° SSW 20:41:52 69° WNW 20:47:34 10° NNE
Resurs 1-3 4.5 20:37:46 10° S 20:42:02 52° W 20:46:20 10° NNW
Cosmos 2123 Rocket 4.0 20:36:55 10° N 20:43:07 86° W 20:49:17 10° S
Cosmos 1975 2.8 20:44:43 10° S 20:48:48 76° E 20:52:55 10° N
EO 1 Delta rocket 4.0 20:44:19 10° N 20:49:06 88° ESE 20:54:45 10° S
Cosmos 1459 Rocket 4.4 20:45:10 10° SSE 20:50:39 37° E 20:56:11 10° NNE
ERS-1 Rocket 3.6 20:48:21 16° SE 20:51:47 37° ENE 20:56:23 10° N
Cosmos 2150 Rocket 4.2 20:47:52 10° N 20:52:53 50° ENE 20:56:30 18° SE
BREEZE-M TANK 3.9 20:41:38 10° WNW 20:55:15 62° N 20:58:04 19° E
Lacrosse 5 rocket 1.5 20:51:55 10° NW 20:55:32 56° SW 20:57:58 19° SSE
FENGYUN 3A 3.9 20:52:52 10° S 20:58:11 71° WSW 21:03:33 10° NNW
Cosmos 1656 3.7 20:55:21 10° SSW 21:00:59 84° WNW 21:06:35 10° NNE
CZ-2D R/B 4.0 20:59:02 10° S 21:02:48 54° W 21:06:38 10° NNW
Cosmos 1763 Rocket 4.0 20:59:04 10° SSE 21:03:35 33° E 21:08:06 10° NE
SJ-11-01 4.4 21:01:22 20° SE 21:04:24 53° ENE 21:08:58 10° N
Resurs 01 Rocket 4.2 21:03:17 10° SW 21:06:40 21° W 21:10:05 10° NW
Cosmos 1606 Rocket 4.4 21:06:33 28° ESE 21:07:22 30° E 21:11:15 10° NNE
CZ-4 DEB 2.8 21:07:23 41° ESE 21:08:06 52° ENE 21:11:11 10° N
Cosmos 1898 Rocket 3.4 21:03:43 10° NNW 21:09:01 75° ENE 21:12:34 21° SSE
Cosmos 1500 3.0 21:06:12 10° S 21:09:57 87° E 21:13:44 10° N
DELTA 2 R/B (1) 3.7 21:04:42 10° W 21:10:12 63° SSW 21:13:06 28° SE
Cosmos 2227 Rocket 3.3 21:06:33 10° NW 21:11:52 43° WSW 21:17:09 10° S
Cosmos 2322 Rocket 3.9 21:16:55 16° ENE 21:16:55 16° ENE 21:18:32 10° NE
Cosmos 1340 3.3 21:16:50 10° N 21:20:21 37° ENE 21:20:21 37° ENE
Cosmos 468 Rocket 4.1 21:15:56 10° SSW 21:21:03 76° WNW 21:26:12 10° NNE
OAO 2 Rocket 3.5 21:16:13 10° W 21:21:07 55° S 21:22:50 37° SE
ALOS 4.0 21:21:51 10° SSW 21:25:59 31° W 21:30:09 10° NNW
Cosmos 1939 Rocket 2.9 21:25:01 43° SE 21:26:13 67° ENE 21:30:22 10° N
USA 186 3.8 21:23:52 10° SSW 21:26:27 24° W 21:28:55 10° NW
Meteor 1-21 4.4 21:21:13 10° N 21:26:52 53° ENE 21:29:02 35° SE
Cosmos 841 Rocket 3.6 21:23:26 19° S 21:26:57 49° ESE 21:31:59 10° NNE
Cosmos 2297 Rocket 3.1 21:21:36 10° NW 21:26:59 45° WSW 21:32:06 11° S
Cosmos 2360 4.3 21:23:07 10° S 21:28:36 51° ESE 21:34:08 10° NNE
Cosmos 1802 Rocket 4.0 21:22:30 10° S 21:28:49 68° E 21:35:13 10° NNE
Cosmos 1726 Rocket 3.8 21:30:18 46° E 21:30:21 46° E 21:34:34 10° NNE
OTV 4 3.0 21:28:47 10° WSW 21:30:01 14° SW 21:30:01 14° SW
Cosmos 1814 Rocket 4.2 21:27:23 10° SSW 21:32:43 72° WNW 21:38:02 10° NNE
Cosmos 972 Rocket 4.5 21:27:35 10° NNW 21:33:42 89° E 21:37:46 26° SSE
Cosmos 2227 4.4 21:30:20 10° NNW 21:35:57 53° ENE 21:37:26 42° ESE
Cosmos 2016 Rocket 3.9 21:35:00 23° S 21:38:58 67° E 21:45:07 10° NNE
ASTEX 1 3.4 21:40:26 10° NNE 21:45:22 56° E 21:45:35 55° ESE
Cosmos 1825 Rocket 3.5 21:41:36 10° N 21:46:03 85° W 21:46:50 59° S
Cosmos 1743 3.4 21:48:12 30° SW 21:49:51 55° W 21:53:43 10° N
Cosmos 2173 Rocket 4.2 21:44:51 10° SSW 21:51:11 71° W 21:57:31 10° N
Tiangong 1 2.7 21:48:51 10° WNW 21:50:47 34° WNW 21:50:47 34° WNW
BREEZE-M DEB (TANK) 2.9 21:51:22 10° NW 21:53:28 45° NNE 21:53:28 45° NNE
RESURS DK-1 2.9 21:51:09 10° NW 21:55:10 51° WSW 21:55:34 49° SW
Cosmos 1953 Rocket 3.5 21:52:33 10° N 21:57:02 89° W 21:57:08 86° SSW
H-2A R/B 1.9 21:57:54 79° NW 21:57:54 79° NW 22:01:50 10° NNW
Cosmos 1697 Rocket 4.2 21:56:05 10° SW 22:01:16 37° WNW 22:06:28 10° N
Cosmos 967 Rocket 4.4 21:58:40 10° NNW 22:05:02 88° WSW 22:06:19 60° SSE
Cosmos 2228 4.5 22:07:21 28° NNE 22:07:21 28° NNE 22:09:28 10° NNE
Envisat 3.5 22:03:38 38° SSW 22:05:19 55° W 22:10:18 10° NNW
Cosmos 1864 Rocket 4.3 22:06:14 60° SSE 22:07:17 74° E 22:13:24 10° N
SL-16 R/B 2.9 22:13:11 40° NE 22:13:11 40° NE 22:16:57 10° NNE
NOAA 11 4.3 22:13:22 58° ENE 22:13:22 58° ENE 22:18:25 10° N
Cosmos 1758 Rocket 4.0 22:11:17 10° NNW 22:15:05 58° WNW 22:15:05 58° WNW
ARGOS 3.3 22:16:23 58° NE 22:16:23 58° NE 22:21:13 10° N
Tsikada Rocket 3.9 22:12:09 10° N 22:18:37 81° E 22:19:19 71° SSE
SL-19 R/B 4.2 22:16:59 10° NNE 22:21:43 67° NNE 22:21:43 67° NNE
Lacrosse 5 2.9 22:19:37 10° WNW 22:24:05 37° WSW 22:24:05 37° WSW
Cosmos 1980 Rocket 3.5 22:19:31 10° SW 22:24:47 39° WNW 22:30:07 10° N
H-2A R/B 3.3 22:27:30 28° NNE 22:27:30 28° NNE 22:30:19 10° N
MetOp-B 4.3 22:28:11 64° WSW 22:28:20 64° WSW 22:33:39 10° NNW
SPOT 5 3.5 22:28:37 51° WSW 22:28:39 51° W 22:33:22 10° NNW
CZ-3C R/B 4.4 22:22:33 10° W 22:35:36 18° SW 22:38:26 16° SSW
Meteor 2-17 Rocket 4.5 22:36:21 69° NNE 22:36:21 69° NNE 22:41:41 10° N
BREEZE-M DEB (TANK) 4.2 22:22:42 10° SW 22:36:38 87° NW 22:37:37 64° NE
Cosmos 1816 Rocket 4.4 22:31:20 10° N 22:37:39 88° N 22:37:39 88° N
Cosmos 1725 Rocket 4.3 22:37:54 47° SW 22:39:27 60° W 22:45:37 10° N
SPOT 1/Viking Rocket 4.1 22:45:54 55° NW 22:45:54 55° NW 22:50:11 10° NNW
Terra 3.6 22:54:47 26° N 22:54:47 26° N 22:56:59 10° N
Cosmos 2263 Rocket 3.0 22:46:55 10° NNW 22:50:51 43° N 22:50:51 43° N
Meteor 2-5 Rocket 4.5 22:51:20 10° N 22:55:38 49° N 22:55:38 49° N
Cosmos 2322 Rocket 2.9 22:58:38 51° NW 22:58:38 51° NW 23:03:39 10° NNE
Cosmos 2233 Rocket 4.3 23:03:44 61° NW 23:03:44 61° NW 23:09:23 10° N
USA 215 3.6 23:06:05 55° NNE 23:06:05 55° NNE 23:12:11 10° NW
ATLAS CENTAUR R/B 4.4 23:29:28 58° E 23:29:28 58° E 23:46:51 10° NE
Cosmos 2278 Rocket 4.5 23:38:21 10° N 23:40:20 16° NNE 23:40:20 16° NNE
